Regional Weather Roundup
Issued by NWS

Current Version | Previous Version | Text Only | Print | Product List | Glossary On
Versions: 1 2 3 4 5 6 7 8 9 10 11 12 13 14 15 16 17 18 19 20 21 22 23 24 25 26 27 28
000
ASUS45 KSLC 301310
RWRUT

UTAH REGIONAL WEATHER ROUNDUP
NATIONAL WEATHER SERVICE SALT LAKE CITY UT
700 AM MDT FRI SEP 30 2022

UTZ101>105-107>111-301400-

NORTHERN UTAH

CITY           SKY/WX    TMP DP  RH WIND       PRES   REMARKS
BRIGHAM CITY   CLEAR     53  33  47 MISG      30.10R
HILL AFB       PTCLDY    53  42  68 N3        30.07S
LOGAN          CLEAR     46  42  86 E3        30.09R
OGDEN          PTCLDY    55  40  56 NW5       30.08S
SALT LAKE CITY MOCLDY    61  48  62 CALM      30.07S
TOOELE VALLEY  MOCLDY    54  43  66 CALM      30.10S
WENDOVER       CLEAR     52  34  50 E5        30.12S
HEBER CITY       N/A     46  41  81 E5        30.10F
WEST JORDAN    MOCLDY    57  43  59 NW6       30.10S

$$

UTZ024>027-106-112>120-301400-

CENTRAL/NORTHEAST UTAH

CITY           SKY/WX    TMP DP  RH WIND       PRES   REMARKS
PROVO AIRPORT  MOCLDY    59  45  59 VRB7      30.08S
MOAB/CANYONLAN PTCLDY    59  48  67 E3        30.02S
DELTA          PTCLDY    55  37  50 E8        30.10R
MANTI          PTSUNNY   57  49  74 S8        30.10S
PRICE          CLOUDY    56  49  77 E3        30.12R THUNDER
RICHFIELD      MOCLDY    63  45  51 CALM      30.09R
ROOSEVELT        N/A     52  46  82 W3        30.10S
VERNAL         MOCLDY    55  50  83 S3        30.09S

$$

UTZ121>131-301400-

SOUTHERN UTAH

CITY           SKY/WX    TMP DP  RH WIND       PRES   REMARKS
BRYCE CANYON   CLOUDY    40  38  93 SW3       30.24F
CEDAR CITY     PTCLDY    60  48  64 SE8       30.12S
MILFORD        PTCLDY    58  37  45 N13       30.10R
PANGUITCH      CLOUDY    46  43  87 CALM      30.21S
ST GEORGE      PTSUNNY   68  51  54 E3        29.98R
HANKSVILLE     PTCLDY    52  46  82 CALM      30.05R
KANAB          CLEAR     52  46  82 CALM      30.15S
BLANDING         N/A     56  38  51 NE5       30.23S

$$

REGIONAL REPORTS     COLORADO/ARIZONA

CITY           SKY/WX    TMP DP  RH WIND       PRES   REMARKS
CRAIG, CO      CLOUDY    53  47  79 SE9       30.13F
GRAND JUNCTION LGT RAIN  59  52  77 E15       30.06F
RIFLE, CO      PTCLDY    53  48  83 E7        30.14F
MONTROSE, CO   MOCLDY    55  43  63 SE10      30.15F
CORTEZ, CO     CLEAR     41  38  89 CALM      30.18S
COLORADO CITY    N/A     54  50  87 S13       30.13S
PAGE, AZ       MOCLDY    63  45  51 SE5       30.05S
GRAND CANYON   CLEAR     40  39  97 CALM      30.24R
KINGMAN, AZ    CLEAR     67  52  58 SE12      30.02S
FLAGSTAFF, AZ  CLEAR     41  36  82 CALM      30.26S

$$

REGIONAL REPORTS    NEVADA/IDAHO/WYOMING

CITY           SKY/WX    TMP DP  RH WIND       PRES   REMARKS
LAS VEGAS, NV  CLEAR     77  38  24 S6        29.89S
ELY, NY        CLOUDY    40  27  59 S8        30.18S WCI  34
ELKO, NV       CLEAR     36  27  69 CALM      30.16S
POCATELLO, ID  CLEAR     43  35  73 S8        30.13R
BURLEY, ID     CLEAR     48  41  76 SW13      30.11S
EVANSTON, WY   PTCLDY    45  41  86 SW5       30.16F
ROCK SPRINGS,  LGT RAIN  48  48 100 S8        30.16F
KEMMERER, WY   PTCLDY    43  41  93 SE5       30.18S

$$



USA.gov is the U.S. government's official web portal to all federal, state and local government web resources and services.